Weather History for KellyUSA Airport, TX

Change the Weather History Date:

Saturday, April 5, 2014

  Actual Average Record
Temperature  
Mean Temperature 58 °F -  
Max Temperature 62 °F 76 °F 91 °F (2006)
Min Temperature 55 °F 56 °F 38 °F (2011)
Degree Days  
Heating Degree Days 6    
Growing Degree Days 8 (Base 50)    
Moisture  
Dew Point 41 °F    
Average Humidity 53    
Maximum Humidity 88    
Minimum Humidity 34    
Precipitation  
Precipitation 0.00 in - - ()
Sea Level Pressure  
Sea Level Pressure 29.93 in    
Wind  
Wind Speed 11 mph (NE)    
Max Wind Speed 21 mph    
Max Gust Speed 25 mph    
Visibility 10 miles    
Events Rain    
Averages and records for this station are not official NWS values.
T = Trace of Precipitation, MM = Missing Value Source: NWS Daily Summary

Daily Weather History Graph

Daily Weather History Graph

Search for Another Location

Airport:

Trip Planner

Search our weather history database for the weather conditions in past years. The results will help you decide how hot, cold, wet, or windy it might be!

Date:

Astronomy

Apr. 05, 2014 Rise Set
Actual Time 7:19 AM CDT 7:55 PM CDT
Civil Twilight 6:55 AM CDT 8:19 PM CDT
Nautical Twilight 6:27 AM CDT 8:47 PM CDT
Astronomical Twilight 5:58 AM CDT 9:16 PM CDT
Moon 11:44 AM CDT (4/5) 12:50 AM CDT (4/5)
Length of Visible Light 13h 23m
Length of Day
12h 35m
Waxing Crescent, 34% of the Moon is Illuminated
Apr 5
Waxing Crescent
Apr 7
First Quarter
Apr 15
Full
Apr 22
Last Quarter
Apr 29
New

Hourly Weather History & Observations

Time (CDT) Temp. Dew Point Humidity Pressure Visibility Wind Dir Wind Speed Gust Speed Precip Events Conditions
12:58 AM 60.8 °F 33.4 °F 36% 30.00 in 10.0 mi ENE 8.1 mph - N/A   Clear
1:58 AM 60.3 °F 34.2 °F 38% 30.03 in 10.0 mi ENE 10.4 mph - N/A   Clear
2:58 AM 59.9 °F 35.2 °F 40% 30.01 in 10.0 mi NE 12.7 mph - N/A   Partly Cloudy
3:58 AM 59.0 °F 34.3 °F 40% 30.00 in 10.0 mi NE 10.4 mph - N/A   Clear
4:53 AM 59.0 °F 33.8 °F 39% 30.00 in 10.0 mi NE 15.0 mph - N/A   Mostly Cloudy
4:58 AM 58.8 °F 34.2 °F 40% 30.00 in 10.0 mi ENE 12.7 mph - N/A   Scattered Clouds
5:08 AM 59.0 °F 33.8 °F 39% 30.00 in 10.0 mi ENE 12.7 mph 20.7 mph N/A   Mostly Cloudy
5:23 AM 59.0 °F 33.8 °F 39% 29.99 in 10.0 mi ENE 13.8 mph 19.6 mph N/A   Scattered Clouds
5:28 AM 59.0 °F 33.8 °F 39% 29.98 in 10.0 mi ENE 10.4 mph - N/A   Mostly Cloudy
5:43 AM 59.0 °F 33.8 °F 39% 29.99 in 10.0 mi ENE 12.7 mph - N/A   Scattered Clouds
5:58 AM 58.3 °F 34.2 °F 40% 29.99 in 10.0 mi ENE 12.7 mph - N/A   Partly Cloudy
6:18 AM 59.0 °F 33.8 °F 39% 30.01 in 10.0 mi NE 12.7 mph 17.3 mph N/A   Mostly Cloudy
6:58 AM 58.8 °F 34.2 °F 40% 30.00 in 10.0 mi ENE 11.5 mph - N/A   Overcast
7:58 AM 58.8 °F 34.2 °F 40% 30.02 in 10.0 mi NE 13.8 mph - N/A   Mostly Cloudy
8:03 AM 59.0 °F 33.8 °F 39% 30.03 in 10.0 mi NE 12.7 mph 21.9 mph N/A   Scattered Clouds
8:58 AM 59.2 °F 34.0 °F 39% 30.00 in 10.0 mi ENE 17.3 mph 23.0 mph N/A   Scattered Clouds
9:28 AM 59.0 °F 32.0 °F 36% 30.01 in 10.0 mi ENE 13.8 mph 20.7 mph N/A   Mostly Cloudy
9:33 AM 59.0 °F 32.0 °F 36% 30.02 in 10.0 mi ENE 11.5 mph 20.7 mph N/A   Mostly Cloudy
9:53 AM 60.8 °F 32.0 °F 34% 30.01 in 10.0 mi NE 15.0 mph - N/A   Mostly Cloudy
9:58 AM 60.3 °F 33.8 °F 37% 29.99 in 10.0 mi NE 20.7 mph 25.3 mph N/A   Mostly Cloudy
10:08 AM 60.8 °F 33.8 °F 36% 30.01 in 10.0 mi ENE 15.0 mph - N/A   Mostly Cloudy
10:18 AM 60.8 °F 33.8 °F 36% 30.02 in 10.0 mi ENE 17.3 mph - N/A   Mostly Cloudy
10:58 AM 61.5 °F 35.2 °F 37% 30.02 in 10.0 mi NE 12.7 mph 19.6 mph N/A   Overcast
11:58 AM 61.7 °F 35.4 °F 38% 30.03 in 10.0 mi ENE 12.7 mph - N/A   Overcast
12:58 PM 61.7 °F 36.0 °F 38% 30.00 in 10.0 mi NE 9.2 mph - N/A   Overcast
1:32 PM 60.8 °F 37.4 °F 42% 29.99 in 10.0 mi NE 10.4 mph - N/A Rain Light Rain
1:43 PM 60.8 °F 37.4 °F 42% 29.98 in 10.0 mi ENE 9.2 mph - N/A   Overcast
1:58 PM 60.8 °F 37.9 °F 43% 29.96 in 10.0 mi ENE 11.5 mph - 0.00 in   Overcast
2:58 PM 61.9 °F 38.3 °F 42% 29.94 in 10.0 mi NE 8.1 mph - N/A   Overcast
3:58 PM 61.9 °F 39.9 °F 44% 29.91 in 10.0 mi East 6.9 mph - N/A   Overcast
4:03 PM 60.8 °F 39.2 °F 45% 29.92 in 10.0 mi East 9.2 mph - N/A   Overcast
4:08 PM 62.6 °F 39.2 °F 42% 29.91 in 10.0 mi East 8.1 mph - N/A   Overcast
4:13 PM 62.6 °F 41.0 °F 45% 29.90 in 10.0 mi East 10.4 mph - N/A   Overcast
4:33 PM 60.8 °F 42.8 °F 52% 29.89 in 10.0 mi ESE 9.2 mph - N/A   Overcast
4:58 PM 60.1 °F 44.1 °F 55% 29.88 in 10.0 mi East 11.5 mph - N/A   Overcast
5:28 PM 60.8 °F 44.6 °F 55% 29.88 in 10.0 mi ESE 10.4 mph - N/A   Light Drizzle
5:58 PM 56.7 °F 50.4 °F 79% 29.87 in 8.0 mi East 9.2 mph - 0.00 in Rain Light Rain
6:08 PM 55.4 °F 51.8 °F 88% 29.86 in 9.0 mi East 9.2 mph - N/A   Light Drizzle
6:11 PM 55.4 °F 51.8 °F 88% 29.85 in 10.0 mi ENE 8.1 mph - N/A   Overcast
6:21 PM 57.2 °F 51.8 °F 82% 29.86 in 10.0 mi East 8.1 mph - N/A   Overcast
6:56 PM 55.4 °F 51.8 °F 88% 29.87 in 10.0 mi NE 4.6 mph - N/A   Overcast
6:58 PM 56.1 °F 51.3 °F 84% 29.87 in 10.0 mi NE 3.5 mph - 0.00 in   Overcast
7:38 PM 55.4 °F 51.8 °F 88% 29.88 in 10.0 mi North 8.1 mph - N/A   Overcast
7:58 PM 56.3 °F 50.7 °F 82% 29.87 in 10.0 mi NNE 6.9 mph - N/A   Overcast
7:59 PM 55.4 °F 50.0 °F 82% 29.87 in 10.0 mi NNE 6.9 mph - N/A Rain Light Rain
8:09 PM 57.2 °F 50.0 °F 77% 29.86 in 10.0 mi NNE 5.8 mph - N/A   Overcast
8:24 PM 57.2 °F 50.0 °F 77% 29.85 in 10.0 mi NNE 8.1 mph - N/A   Light Drizzle
8:34 PM 57.2 °F 50.0 °F 77% 29.85 in 10.0 mi NE 6.9 mph - N/A   Overcast
8:58 PM 57.6 °F 49.3 °F 74% 29.84 in 10.0 mi NE 6.9 mph - 0.00 in   Overcast
9:23 PM 59.0 °F 48.2 °F 67% 29.84 in 10.0 mi NNE 6.9 mph - N/A   Overcast
9:58 PM 59.4 °F 46.9 °F 63% 29.84 in 10.0 mi NE 8.1 mph - N/A   Overcast
10:17 PM 59.0 °F 46.4 °F 63% 29.86 in 10.0 mi NE 4.6 mph - N/A   Light Drizzle
10:26 PM 59.0 °F 46.4 °F 63% 29.86 in 10.0 mi NE 5.8 mph - N/A   Overcast
10:31 PM 59.0 °F 46.4 °F 63% 29.87 in 10.0 mi NE 5.8 mph - N/A   Overcast
10:36 PM 59.0 °F 46.4 °F 63% 29.87 in 10.0 mi NNE 8.1 mph - N/A   Overcast
10:46 PM 60.8 °F 46.4 °F 59% 29.87 in 10.0 mi NNE 6.9 mph - N/A   Overcast
10:58 PM 60.1 °F 46.0 °F 60% 29.86 in 10.0 mi NNE 5.8 mph - 0.00 in   Overcast
11:28 PM 60.8 °F 46.4 °F 59% 29.85 in 10.0 mi ENE 5.8 mph - N/A   Overcast
11:58 PM 60.4 °F 46.2 °F 59% 29.86 in 10.0 mi NE 6.9 mph - N/A   Overcast